Severe Thunderstorm Warning
until 12:00 AM EDT
| Temperature (°F) | Max | Average | Min |
|---|---|---|---|
| Max Temperature | 88 | 74.22 | 60 |
| Avg Temperature | 79.17 | 64.32 | 53.18 |
| Min Temperature | 74 | 55.75 | 44 |
| Precipitation (in) | Max | Average | Min | Sum |
|---|---|---|---|---|
| Precipitation | 1.88 | 0.14 | 0 | 4.49 |
| Dew Point (°F) | Max | Average | Min |
|---|---|---|---|
| Dew Point | 63.28 | 51.29 | 37.5 |
| Wind (mph) | Max | Average | Min |
|---|---|---|---|
| Wind | 28 | 14.88 | 7 |
| Gust Wind | 38 | 25.71 | 17 |
| Sea Level Pressure (in) | Max | Average | Min |
|---|---|---|---|
| Sea Level Pressure | 29.57 | 29.22 | 28.89 |
| Date | Temp High/Low | Dew Pt High/Low | Humidity | Wind | Max Wind | Wind Gust | Pressure | Precip. | Condition |
|---|---|---|---|---|---|---|---|---|---|
| 5/1/2024 | 81 °F / 51 °F | 57 °F / 37 °F | 56 % | 22 mph | - | 29.22 in | 0 in | ||
| 5/2/2024 | 70 °F / 52 °F | 52 °F / 39 °F | 57 % | 10 mph | - | 29.35 in | 0 in | ||
| 5/3/2024 | 70 °F / 56 °F | 60 °F / 47 °F | 81 % | 10 mph | - | 29.31 in | 0.49 in | ||
| 5/4/2024 | 71 °F / 56 °F | 62 °F / 53 °F | 83 % | 10 mph | - | 29.33 in | 0 in | ||
| 5/5/2024 | 70 °F / 55 °F | 62 °F / 41 °F | 84 % | 12 mph | - | 29.28 in | 0 in | ||
| 5/6/2024 | 67 °F / 49 °F | 44 °F / 31 °F | 52 % | 14 mph | - | 29.36 in | 0 in | ||
| 5/7/2024 | 69 °F / 47 °F | 54 °F / 37 °F | 64 % | 13 mph | - | 29.06 in | 0.12 in | ||
| 5/8/2024 | 78 °F / 53 °F | 57 °F / 40 °F | 63 % | 18 mph | - | 29.02 in | 0 in | ||
| 5/9/2024 | 57 °F / 51 °F | 51 °F / 43 °F | 80 % | 12 mph | - | 29.14 in | 0.4 in | ||
| 5/10/2024 | 64 °F / 45 °F | 43 °F / 34 °F | 54 % | 15 mph | - | 29.17 in | 0 in | ||
| 5/11/2024 | 56 °F / 49 °F | 50 °F / 41 °F | 79 % | 18 mph | - | 29.03 in | 0.72 in | ||
| 5/12/2024 | 71 °F / 44 °F | 50 °F / 40 °F | 63 % | 14 mph | - | 29.21 in | 0 in | ||
| 5/13/2024 | 82 °F / 58 °F | 53 °F / 48 °F | 50 % | 26 mph | - | 29.14 in | 0 in | ||
| 5/14/2024 | 72 °F / 57 °F | 56 °F / 39 °F | 60 % | 12 mph | - | 29.14 in | 0 in | ||
| 5/15/2024 | 75 °F / 54 °F | 55 °F / 44 °F | 62 % | 12 mph | - | 29.15 in | 0 in | ||
| 5/16/2024 | 74 °F / 51 °F | 58 °F / 43 °F | 64 % | 13 mph | - | 29.19 in | 0 in | ||
| 5/17/2024 | 74 °F / 62 °F | 63 °F / 55 °F | 80 % | 9 mph | - | 29.15 in | 0.03 in | ||
| 5/18/2024 | 74 °F / 60 °F | 63 °F / 58 °F | 85 % | 10 mph | - | 29.22 in | 0 in | ||
| 5/19/2024 | 88 °F / 58 °F | 69 °F / 56 °F | 74 % | 13 mph | - | 29.28 in | 0.21 in | ||
| 5/20/2024 | 88 °F / 61 °F | 68 °F / 58 °F | 70 % | 13 mph | - | 29.25 in | 0.04 in | ||
| 5/21/2024 | 87 °F / 65 °F | 67 °F / 59 °F | 63 % | 15 mph | - | 29.17 in | 0 in | ||
| 5/22/2024 | 87 °F / 69 °F | 65 °F / 47 °F | 52 % | 25 mph | - | 29.08 in | 0 in | ||
| 5/23/2024 | 80 °F / 59 °F | 50 °F / 43 °F | 43 % | 16 mph | - | 29.25 in | 0 in | ||
| 5/24/2024 | 80 °F / 57 °F | 55 °F / 46 °F | 49 % | 9 mph | - | 29.22 in | 0 in | ||
| 5/25/2024 | 80 °F / 63 °F | 63 °F / 48 °F | 62 % | 15 mph | - | 29.13 in | 0.14 in | ||
| 5/26/2024 | 78 °F / 57 °F | 62 °F / 48 °F | 74 % | 28 mph | - | 29.07 in | 1.47 in | ||
| 5/27/2024 | 72 °F / 62 °F | 64 °F / 53 °F | 83 % | 24 mph | - | 28.91 in | 0.77 in | ||
| 5/28/2024 | 72 °F / 56 °F | 57 °F / 49 °F | 75 % | 18 mph | - | 29.2 in | 0 in | ||
| 5/29/2024 | 67 °F / 53 °F | 56 °F / 34 °F | 71 % | 15 mph | - | 29.37 in | 0.1 in | ||
| 5/30/2024 | 72 °F / 45 °F | 43 °F / 35 °F | 48 % | 13 mph | - | 29.53 in | 0 in | ||
| 5/31/2024 | 75 °F / 49 °F | 52 °F / 42 °F | 55 % | 12 mph | - | 29.57 in | 0 in |